,,,PA_Meas_PMT16A,,PR_Meas_QMR101_102,,RH_Meas_QMH101,,SR_Meas_QMS101,,TA_Meas_QMH101,,GenWind,,GenWind,
date,time,status,PA,status,PR,status,RH,status,SR,status,TA,status,DirAvg,status,SpdAvg,
2010-07-01, 00:00:05,VALID,1000.95,VALID,0,VALID,91.1282,VALID,0,VALID,23.3695,VALID,49,VALID,0.326953,
2010-07-01, 00:01:05,VALID,1000.97,VALID,0,VALID,91.1816,VALID,0,VALID,23.3482,VALID,49,VALID,0.0886719,
2010-07-01, 00:02:05,VALID,1000.98,VALID,0,VALID,91.2655,VALID,0,VALID,23.3695,VALID,49,VALID,0.290234,
2010-07-01, 00:03:05,VALID,1001,VALID,0,VALID,91.3037,VALID,0,VALID,23.389,VALID,49,VALID,0.464063,
2010-07-01, 00:04:05,VALID,1001,VALID,0,VALID,91.3113,VALID,0,VALID,23.4085,VALID,49,VALID,0.608203,
2010-07-01, 00:05:05,VALID,1000.98,VALID,0,VALID,91.2121,VALID,0,VALID,23.428,VALID,49,VALID,0.316797,
2010-07-01, 00:06:05,VALID,1001,VALID,0,VALID,91.1511,VALID,0,VALID,23.4688,VALID,49,VALID,0.0558594,
2010-07-01, 00:07:05,VALID,1001,VALID,0,VALID,91.0443,VALID,0,VALID,23.4671,VALID,49,VALID,0,
2010-07-01, 00:08:05,VALID,1001,VALID,0,VALID,90.968,VALID,0,VALID,23.4671,VALID,49,VALID,0,
2010-07-01, 00:09:05,VALID,1001.02,VALID,0,VALID,90.8917,VALID,0,VALID,23.4475,VALID,134,VALID,0,
2010-07-01, 00:10:05,VALID,1001.04,VALID,0,VALID,90.7849,VALID,0,VALID,23.4671,VALID,142,VALID,0.275781,
2010-07-01, 00:11:05,VALID,1001.02,VALID,0,VALID,90.6399,VALID,0,VALID,23.4866,VALID,145,VALID,1.125,
2010-07-01, 00:12:05,VALID,1000.98,VALID,0,VALID,90.3271,VALID,0,VALID,23.5451,VALID,145,VALID,0.799219,
2010-07-01, 00:13:05,VALID,1000.99,VALID,0,VALID,90.0219,VALID,0,VALID,23.5841,VALID,145,VALID,0.527344,
2010-07-01, 00:14:05,VALID,1000.95,VALID,0,VALID,89.8388,VALID,0,VALID,23.6232,VALID,143,VALID,0.578516,
2010-07-01, 00:15:05,VALID,1001,VALID,0,VALID,89.7701,VALID,0,VALID,23.6427,VALID,143,VALID,0.519141,
2010-07-01, 00:16:05,VALID,1000.95,VALID,0,VALID,89.7014,VALID,0,VALID,23.6427,VALID,143,VALID,0.521094,
2010-07-01, 00:17:05,VALID,1000.98,VALID,0,VALID,89.587,VALID,0,VALID,23.6427,VALID,143,VALID,0.516797,
2010-07-01, 00:18:05,VALID,1000.94,VALID,0,VALID,89.587,VALID,0,VALID,23.6036,VALID,121,VALID,0.426562,
2010-07-01, 00:19:05,VALID,1000.95,VALID,0,VALID,89.6786,VALID,0,VALID,23.5841,VALID,121,VALID,0.0667969,
2010-07-01, 00:20:05,VALID,1000.95,VALID,0,VALID,89.7701,VALID,0,VALID,23.5646,VALID,121,VALID,0,
2010-07-01, 00:21:05,VALID,1000.92,VALID,0,VALID,90.0753,VALID,0,VALID,23.5451,VALID,121,VALID,0.249219,
2010-07-01, 00:22:05,VALID,1000.9,VALID,0,VALID,90.2203,VALID,0,VALID,23.5256,VALID,121,VALID,0.0960938,
2010-07-01, 00:23:05,VALID,1000.9,VALID,0,VALID,90.2889,VALID,0,VALID,23.5256,VALID,121,VALID,0.495703,
2010-07-01, 00:24:05,VALID,1000.89,VALID,0,VALID,90.3042,VALID,0,VALID,23.4866,VALID,60,VALID,0.549609,
2010-07-01, 00:25:05,VALID,1000.95,VALID,0,VALID,90.205,VALID,0,VALID,23.4671,VALID,60,VALID,0.00585938,
2010-07-01, 00:26:05,VALID,1000.92,VALID,0,VALID,90.2203,VALID,0,VALID,23.428,VALID,60,VALID,0.00078125,
2010-07-01, 00:27:05,VALID,1000.93,VALID,0,VALID,90.2889,VALID,0,VALID,23.4085,VALID,56,VALID,0.727344,
2010-07-01, 00:28:05,VALID,1000.92,VALID,0,VALID,90.2355,VALID,0,VALID,23.3713,VALID,41,VALID,1.04922,
2010-07-01, 00:29:05,VALID,1000.93,VALID,0,VALID,90.5407,VALID,0,VALID,23.311,VALID,41,VALID,1.28203,
2010-07-01, 00:30:05,VALID,1000.95,VALID,0,VALID,90.8535,VALID,0,VALID,23.2915,VALID,41,VALID,1.34219,
2010-07-01, 00:31:05,VALID,1000.94,VALID,0,VALID,90.8154,VALID,0,VALID,23.311,VALID,39,VALID,0.951563,
2010-07-01, 00:32:05,VALID,1000.89,VALID,0,VALID,90.4949,VALID,0,VALID,23.3305,VALID,13,VALID,0.639453,
2010-07-01, 00:33:05,VALID,1000.87,VALID,0,VALID,90.4644,VALID,0,VALID,23.2915,VALID,13,VALID,0.742578,
2010-07-01, 00:34:05,VALID,1000.87,VALID,0,VALID,90.617,VALID,0,VALID,23.2915,VALID,355,VALID,1.03555,
2010-07-01, 00:35:05,VALID,1000.87,VALID,0,VALID,90.7314,VALID,0,VALID,23.2915,VALID,347,VALID,0.467187,
2010-07-01, 00:36:05,VALID,1000.85,VALID,0,VALID,90.968,VALID,0,VALID,23.2702,VALID,310,VALID,0.823047,
2010-07-01, 00:37:05,VALID,1000.87,VALID,0,VALID,91.0061,VALID,0,VALID,23.311,VALID,333,VALID,0.883203,
2010-07-01, 00:38:05,VALID,1000.89,VALID,0,VALID,91.0137,VALID,0,VALID,23.311,VALID,333,VALID,0.307813,
2010-07-01, 00:39:05,VALID,1000.9,VALID,0,VALID,90.9451,VALID,0,VALID,23.2897,VALID,333,VALID,0,
2010-07-01, 00:40:05,VALID,1000.91,VALID,0,VALID,91.0595,VALID,0,VALID,23.2915,VALID,333,VALID,0.0832031,
2010-07-01, 00:41:05,VALID,1000.87,VALID,0,VALID,91.1206,VALID,0,VALID,23.2719,VALID,333,VALID,0,
2010-07-01, 00:42:05,VALID,1000.87,VALID,0,VALID,91.1968,VALID,0,VALID,23.2719,VALID,333,VALID,0,
2010-07-01, 00:43:05,VALID,1000.84,VALID,0,VALID,91.235,VALID,0,VALID,23.2524,VALID,333,VALID,0,
2010-07-01, 00:44:05,VALID,1000.82,VALID,0,VALID,91.3189,VALID,0,VALID,23.2719,VALID,333,VALID,0,
2010-07-01, 00:45:05,VALID,1000.83,VALID,0,VALID,91.3266,VALID,0,VALID,23.2524,VALID,6,VALID,0.773828,
2010-07-01, 00:46:05,VALID,1000.78,VALID,0,VALID,91.2426,VALID,0,VALID,23.2329,VALID,22,VALID,0.825,
2010-07-01, 00:47:05,VALID,1000.75,VALID,0,VALID,91.2579,VALID,0,VALID,23.2347,VALID,23,VALID,0.789844,
2010-07-01, 00:48:05,VALID,1000.75,VALID,0,VALID,90.7467,VALID,0,VALID,23.1744,VALID,50,VALID,1.14844,
2010-07-01, 00:49:05,VALID,1000.7,VALID,0,VALID,90.4186,VALID,0,VALID,23.1549,VALID,55,VALID,1.25156,
2010-07-01, 00:50:05,VALID,1000.69,VALID,0,VALID,90.5483,VALID,0,VALID,23.1549,VALID,54,VALID,1.33945,
2010-07-01, 00:51:05,VALID,1000.69,VALID,0,VALID,90.7772,VALID,0,VALID,23.1354,VALID,44,VALID,1.49609,
2010-07-01, 00:52:05,VALID,1000.67,VALID,0,VALID,90.8459,VALID,0,VALID,23.1159,VALID,46,VALID,1.12461,
2010-07-01, 00:53:05,VALID,1000.66,VALID,0,VALID,90.9222,VALID,0,VALID,23.1159,VALID,51,VALID,0.938672,
2010-07-01, 00:54:05,VALID,1000.65,VALID,0,VALID,91.0519,VALID,0,VALID,23.0964,VALID,54,VALID,0.942578,
2010-07-01, 00:55:05,VALID,1000.65,VALID,0,VALID,91.1663,VALID,0,VALID,23.1159,VALID,54,VALID,0.964453,
2010-07-01, 00:56:05,VALID,1000.64,VALID,0,VALID,91.1358,VALID,0,VALID,23.1354,VALID,54,VALID,0.987109,
2010-07-01, 00:57:05,VALID,1000.6,VALID,0,VALID,91.0366,VALID,0,VALID,23.1141,VALID,46,VALID,1.26367,
2010-07-01, 00:58:05,VALID,1000.58,VALID,0,VALID,90.7467,VALID,0,VALID,23.1141,VALID,39,VALID,1.34414,
2010-07-01, 00:59:05,VALID,1000.53,VALID,0,VALID,90.5026,VALID,0,VALID,23.1354,VALID,23,VALID,1.08633,
2010-07-01, 01:00:05,VALID,1000.48,VALID,0,VALID,90.3271,VALID,0,VALID,23.1159,VALID,17,VALID,1.0418,
2010-07-01, 01:01:05,VALID,1000.43,VALID,0,VALID,90.3957,VALID,0,VALID,23.0769,VALID,9,VALID,1.30742,
2010-07-01, 01:02:05,VALID,1000.4,VALID,0,VALID,90.3805,VALID,0,VALID,23.0769,VALID,360,VALID,1.31914,
2010-07-01, 01:03:05,VALID,1000.32,VALID,0,VALID,90.0448,VALID,0,VALID,23.0786,VALID,15,VALID,1.64258,
2010-07-01, 01:04:05,VALID,1000.28,VALID,0,VALID,89.6251,VALID,0,VALID,23.0964,VALID,13,VALID,1.20508,
2010-07-01, 01:05:05,VALID,1000.27,VALID,0,VALID,89.7243,VALID,0,VALID,23.1744,VALID,327,VALID,0.747656,
2010-07-01, 01:06:05,VALID,1000.23,VALID,0,VALID,90.144,VALID,0,VALID,23.2134,VALID,331,VALID,0.783203,
2010-07-01, 01:07:04,VALID,1000.22,VALID,0,VALID,90.1745,VALID,0,VALID,23.2134,VALID,331,VALID,0.213281,
2010-07-01, 01:08:04,VALID,1000.22,VALID,0,VALID,90.1516,VALID,0,VALID,23.2134,VALID,331,VALID,0,
2010-07-01, 01:09:04,VALID,1000.21,VALID,0,VALID,90.1134,VALID,0,VALID,23.1939,VALID,331,VALID,0,
2010-07-01, 01:10:04,VALID,1000.21,VALID,0,VALID,90.0829,VALID,0,VALID,23.1744,VALID,331,VALID,0.0015625,
2010-07-01, 01:11:04,VALID,1000.22,VALID,0,VALID,90.2355,VALID,0,VALID,23.1726,VALID,256,VALID,0.515625,
2010-07-01, 01:12:04,VALID,1000.22,VALID,0,VALID,90.3194,VALID,0,VALID,23.1939,VALID,256,VALID,0.0625,
2010-07-01, 01:13:04,VALID,1000.21,VALID,0,VALID,90.3347,VALID,0,VALID,23.1939,VALID,256,VALID,0,
2010-07-01, 01:14:04,VALID,1000.23,VALID,0,VALID,90.35,VALID,0,VALID,23.1939,VALID,256,VALID,0.145313,
2010-07-01, 01:15:04,VALID,1000.22,VALID,0,VALID,90.2584,VALID,0,VALID,23.1726,VALID,256,VALID,0.168359,
2010-07-01, 01:16:04,VALID,1000.23,VALID,0,VALID,90.1516,VALID,0,VALID,23.2134,VALID,256,VALID,0.390625,
2010-07-01, 01:17:04,VALID,1000.22,VALID,0,VALID,90.0982,VALID,0,VALID,23.2507,VALID,256,VALID,0.457422,
2010-07-01, 01:18:04,VALID,1000.27,VALID,0,VALID,89.9685,VALID,0,VALID,23.2702,VALID,227,VALID,0.636328,
2010-07-01, 01:19:04,VALID,1000.31,VALID,0,VALID,89.7777,VALID,0,VALID,23.311,VALID,220,VALID,0.455078,
2010-07-01, 01:20:04,VALID,1000.34,VALID,0,VALID,89.381,VALID,0,VALID,23.311,VALID,219,VALID,0.408594,
2010-07-01, 01:21:04,VALID,1000.41,VALID,0,VALID,89.1979,VALID,0,VALID,23.311,VALID,93,VALID,1.38398,
2010-07-01, 01:22:04,VALID,1000.44,VALID,0,VALID,88.9309,VALID,0,VALID,23.3092,VALID,104,VALID,1.6707,
2010-07-01, 01:23:04,VALID,1000.47,VALID,0,VALID,89.3276,VALID,0.112286,VALID,23.35,VALID,100,VALID,1.63711,
2010-07-01, 01:24:04,VALID,1000.45,VALID,0,VALID,89.7777,VALID,0,VALID,23.3305,VALID,102,VALID,1.47891,
2010-07-01, 01:25:04,VALID,1000.51,VALID,0,VALID,89.9456,VALID,0,VALID,23.3305,VALID,105,VALID,1.28477,
2010-07-01, 01:26:04,VALID,1000.5,VALID,0,VALID,90.0219,VALID,0,VALID,23.2702,VALID,106,VALID,1.32578,
2010-07-01, 01:27:04,VALID,1000.5,VALID,0,VALID,89.9456,VALID,0,VALID,23.2702,VALID,111,VALID,0.981641,
2010-07-01, 01:28:04,VALID,1000.52,VALID,0,VALID,89.9456,VALID,0,VALID,23.2719,VALID,111,VALID,0.468359,
2010-07-01, 01:29:04,VALID,1000.53,VALID,0,VALID,90.06,VALID,0,VALID,23.2524,VALID,111,VALID,0.328516,
2010-07-01, 01:30:04,VALID,1000.54,VALID,0,VALID,90.3805,VALID,0,VALID,23.2719,VALID,111,VALID,0.445703,
2010-07-01, 01:31:04,VALID,1000.57,VALID,0,VALID,90.4873,VALID,0,VALID,23.2312,VALID,111,VALID,0.293359,
2010-07-01, 01:32:04,VALID,1000.55,VALID,0,VALID,90.6704,VALID,0,VALID,23.2719,VALID,111,VALID,0.458203,
2010-07-01, 01:33:04,VALID,1000.53,VALID,0,VALID,90.7849,VALID,0,VALID,23.2524,VALID,111,VALID,0.30625,
2010-07-01, 01:34:04,VALID,1000.55,VALID,0,VALID,90.8764,VALID,0,VALID,23.2719,VALID,111,VALID,0.388672,
2010-07-01, 01:35:04,VALID,1000.56,VALID,0,VALID,90.8535,VALID,0,VALID,23.2915,VALID,111,VALID,0.572266,
2010-07-01, 01:36:04,VALID,1000.61,VALID,0,VALID,90.8611,VALID,0,VALID,23.2915,VALID,120,VALID,0.786328,
2010-07-01, 01:37:04,VALID,1000.6,VALID,0,VALID,90.9222,VALID,0,VALID,23.3305,VALID,122,VALID,0.875781,
2010-07-01, 01:38:04,VALID,1000.58,VALID,0,VALID,90.823,VALID,0,VALID,23.3305,VALID,142,VALID,0.721094,
2010-07-01, 01:39:04,VALID,1000.6,VALID,0,VALID,90.7772,VALID,0,VALID,23.3287,VALID,142,VALID,0.529297,
2010-07-01, 01:40:04,VALID,1000.59,VALID,0,VALID,90.9222,VALID,0,VALID,23.3695,VALID,142,VALID,0.499219,
2010-07-01, 01:41:04,VALID,1000.61,VALID,0,VALID,90.9298,VALID,0,VALID,23.3677,VALID,142,VALID,0.661719,
2010-07-01, 01:42:04,VALID,1000.6,VALID,0,VALID,90.8688,VALID,0,VALID,23.4085,VALID,142,VALID,0.642578,
2010-07-01, 01:43:04,VALID,1000.6,VALID,0,VALID,90.6704,VALID,0,VALID,23.428,VALID,142,VALID,0.379297,
2010-07-01, 01:44:04,VALID,1000.61,VALID,0,VALID,90.7162,VALID,0,VALID,23.4475,VALID,142,VALID,0.415234,
2010-07-01, 01:45:04,VALID,1000.6,VALID,0,VALID,90.5865,VALID,0,VALID,23.4671,VALID,142,VALID,0.3625,
2010-07-01, 01:46:04,VALID,1000.61,VALID,0,VALID,90.472,VALID,0,VALID,23.4866,VALID,142,VALID,0.570703,
2010-07-01, 01:47:04,VALID,1000.62,VALID,0,VALID,90.3347,VALID,0,VALID,23.4866,VALID,133,VALID,0.584766,
2010-07-01, 01:48:04,VALID,1000.62,VALID,0,VALID,90.2508,VALID,0,VALID,23.4848,VALID,132,VALID,0.587109,
2010-07-01, 01:49:04,VALID,1000.62,VALID,0,VALID,90.0982,VALID,0,VALID,23.4848,VALID,103,VALID,0.626562,
2010-07-01, 01:50:04,VALID,1000.63,VALID,0,VALID,90.0371,VALID,0,VALID,23.5256,VALID,96,VALID,0.611328,
2010-07-01, 01:51:04,VALID,1000.61,VALID,0,VALID,89.9532,VALID,0.112286,VALID,23.5238,VALID,95,VALID,0.579297,
2010-07-01, 01:52:04,VALID,1000.61,VALID,0,VALID,89.9303,VALID,0,VALID,23.5451,VALID,95,VALID,0.486328,
2010-07-01, 01:53:04,VALID,1000.61,VALID,0,VALID,89.9074,VALID,0,VALID,23.5238,VALID,74,VALID,0.451172,
2010-07-01, 01:54:04,VALID,1000.64,VALID,0,VALID,90.0295,VALID,0,VALID,23.5061,VALID,74,VALID,0.46875,
2010-07-01, 01:55:04,VALID,1000.63,VALID,0,VALID,90.1363,VALID,0,VALID,23.5061,VALID,74,VALID,0.328125,
2010-07-01, 01:56:04,VALID,1000.63,VALID,0,VALID,90.3652,VALID,0,VALID,23.4671,VALID,74,VALID,0.324609,
2010-07-01, 01:57:04,VALID,1000.61,VALID,0,VALID,90.5636,VALID,0,VALID,23.4671,VALID,74,VALID,0.304297,
2010-07-01, 01:58:04,VALID,1000.6,VALID,0,VALID,90.6323,VALID,0,VALID,23.4671,VALID,74,VALID,0.276172,
2010-07-01, 01:59:04,VALID,1000.6,VALID,0,VALID,90.6628,VALID,0,VALID,23.4671,VALID,74,VALID,0.308984,
2010-07-01, 02:00:04,VALID,1000.53,VALID,0,VALID,90.7772,VALID,0,VALID,23.4866,VALID,74,VALID,0.261328,
2010-07-01, 02:01:04,VALID,1000.53,VALID,0,VALID,90.9146,VALID,0,VALID,23.5061,VALID,74,VALID,0.346484,
2010-07-01, 02:02:04,VALID,1000.5,VALID,0,VALID,90.9832,VALID,0,VALID,23.4866,VALID,74,VALID,0.519531,
2010-07-01, 02:03:04,VALID,1000.45,VALID,0,VALID,90.8077,VALID,0,VALID,23.4866,VALID,74,VALID,0.396484,
2010-07-01, 02:04:04,VALID,1000.44,VALID,0,VALID,90.6704,VALID,0,VALID,23.5061,VALID,74,VALID,0.184766,
2010-07-01, 02:05:04,VALID,1000.39,VALID,0,VALID,90.5026,VALID,0,VALID,23.5256,VALID,74,VALID,0,
2010-07-01, 02:06:04,VALID,1000.4,VALID,0,VALID,90.411,VALID,0,VALID,23.5451,VALID,74,VALID,0,
2010-07-01, 02:07:04,VALID,1000.39,VALID,0,VALID,90.4263,VALID,0,VALID,23.5451,VALID,74,VALID,0.110937,
2010-07-01, 02:08:04,VALID,1000.4,VALID,0,VALID,90.2203,VALID,0,VALID,23.5451,VALID,75,VALID,0.989844,
2010-07-01, 02:09:04,VALID,1000.42,VALID,0,VALID,90.1974,VALID,0,VALID,23.5646,VALID,84,VALID,1.69414,
2010-07-01, 02:10:04,VALID,1000.44,VALID,0,VALID,90.4186,VALID,0,VALID,23.5451,VALID,83,VALID,1.28945,
2010-07-01, 02:11:04,VALID,1000.43,VALID,0,VALID,90.617,VALID,0,VALID,23.5061,VALID,95,VALID,1.17109,
2010-07-01, 02:12:04,VALID,1000.45,VALID,0,VALID,90.5483,VALID,0,VALID,23.4475,VALID,104,VALID,1.16016,
2010-07-01, 02:13:04,VALID,1000.44,VALID,0,VALID,90.5102,VALID,0,VALID,23.4085,VALID,105,VALID,1.0457,
2010-07-01, 02:14:04,VALID,1000.44,VALID,0,VALID,90.6628,VALID,0,VALID,23.3695,VALID,128,VALID,0.977344,
2010-07-01, 02:15:04,VALID,1000.43,VALID,0,VALID,90.823,VALID,0,VALID,23.35,VALID,128,VALID,0.379687,
2010-07-01, 02:16:04,VALID,1000.42,VALID,0,VALID,90.9222,VALID,0,VALID,23.3695,VALID,142,VALID,0.373828,
2010-07-01, 02:17:04,VALID,1000.43,VALID,0,VALID,90.9985,VALID,0,VALID,23.389,VALID,151,VALID,0.434375,
2010-07-01, 02:18:04,VALID,1000.43,VALID,0,VALID,90.9985,VALID,0,VALID,23.4085,VALID,151,VALID,0.335547,
2010-07-01, 02:19:04,VALID,1000.44,VALID,0,VALID,90.9222,VALID,0,VALID,23.428,VALID,151,VALID,0.216797,
2010-07-01, 02:20:04,VALID,1000.39,VALID,0,VALID,90.8535,VALID,0,VALID,23.428,VALID,151,VALID,0.266797,
2010-07-01, 02:21:04,VALID,1000.39,VALID,0,VALID,90.6094,VALID,0,VALID,23.4671,VALID,149,VALID,0.848047,
2010-07-01, 02:22:04,VALID,1000.4,VALID,0,VALID,89.9151,VALID,0,VALID,23.5451,VALID,149,VALID,0.848437,
2010-07-01, 02:23:04,VALID,1000.38,VALID,0,VALID,89.526,VALID,0,VALID,23.6232,VALID,171,VALID,0.489844,
2010-07-01, 02:24:04,VALID,1000.37,VALID,0,VALID,89.1597,VALID,0,VALID,23.7012,VALID,171,VALID,0.206641,
2010-07-01, 02:25:04,VALID,1000.33,VALID,0,VALID,89.175,VALID,0,VALID,23.7207,VALID,235,VALID,0.457812,
2010-07-01, 02:26:04,VALID,1000.3,VALID,0,VALID,89.3505,VALID,0,VALID,23.7012,VALID,314,VALID,0.973828,
2010-07-01, 02:27:04,VALID,1000.3,VALID,0,VALID,89.4726,VALID,0,VALID,23.6817,VALID,314,VALID,0.869141,
2010-07-01, 02:28:04,VALID,1000.29,VALID,0,VALID,89.7625,VALID,0,VALID,23.6427,VALID,314,VALID,0.81875,
2010-07-01, 02:29:04,VALID,1000.28,VALID,0,VALID,90.0066,VALID,0,VALID,23.5646,VALID,319,VALID,0.768359,
2010-07-01, 02:30:04,VALID,1000.28,VALID,0,VALID,90.2355,VALID,0,VALID,23.5256,VALID,310,VALID,0.5875,
2010-07-01, 02:31:04,VALID,1000.29,VALID,0,VALID,90.3805,VALID,0,VALID,23.4866,VALID,338,VALID,0.673047,
2010-07-01, 02:32:04,VALID,1000.3,VALID,0,VALID,90.4339,VALID,0,VALID,23.4671,VALID,331,VALID,0.724219,
2010-07-01, 02:33:04,VALID,1000.31,VALID,0,VALID,90.6246,VALID,0,VALID,23.4475,VALID,331,VALID,0.34375,
2010-07-01, 02:34:04,VALID,1000.3,VALID,0,VALID,90.7085,VALID,0,VALID,23.4067,VALID,331,VALID,0.16875,
2010-07-01, 02:35:04,VALID,1000.32,VALID,0,VALID,90.7925,VALID,0,VALID,23.4085,VALID,331,VALID,0.492578,
2010-07-01, 02:36:04,VALID,1000.31,VALID,0,VALID,90.7009,VALID,0,VALID,23.3677,VALID,39,VALID,0.900781,
2010-07-01, 02:37:04,VALID,1000.31,VALID,0,VALID,90.8154,VALID,0,VALID,23.35,VALID,55,VALID,0.993359,
2010-07-01, 02:38:04,VALID,1000.32,VALID,0,VALID,90.8077,VALID,0,VALID,23.35,VALID,55,VALID,1.14258,
2010-07-01, 02:39:04,VALID,1000.31,VALID,0,VALID,90.9146,VALID,0,VALID,23.35,VALID,74,VALID,1.17188,
2010-07-01, 02:40:04,VALID,1000.27,VALID,0,VALID,90.8154,VALID,0,VALID,23.3695,VALID,74,VALID,1.19336,
2010-07-01, 02:41:04,VALID,1000.27,VALID,0,VALID,90.7009,VALID,0,VALID,23.3677,VALID,70,VALID,1.03281,
2010-07-01, 02:42:04,VALID,1000.26,VALID,0,VALID,90.5712,VALID,0,VALID,23.3872,VALID,68,VALID,1.10078,
2010-07-01, 02:43:04,VALID,1000.26,VALID,0,VALID,90.5254,VALID,0,VALID,23.428,VALID,68,VALID,0.705078,
2010-07-01, 02:44:04,VALID,1000.25,VALID,0,VALID,90.5102,VALID,0,VALID,23.428,VALID,68,VALID,0.567187,
2010-07-01, 02:45:04,VALID,1000.23,VALID,0,VALID,90.472,VALID,0,VALID,23.4067,VALID,66,VALID,0.651172,
2010-07-01, 02:46:04,VALID,1000.2,VALID,0,VALID,90.4797,VALID,0,VALID,23.428,VALID,66,VALID,0.303906,
2010-07-01, 02:47:04,VALID,1000.17,VALID,0,VALID,90.5407,VALID,0,VALID,23.4067,VALID,66,VALID,0.194141,
2010-07-01, 02:48:04,VALID,1000.14,VALID,0,VALID,90.5636,VALID,0,VALID,23.4067,VALID,66,VALID,0.289063,
2010-07-01, 02:49:04,VALID,1000.15,VALID,0,VALID,90.5712,VALID,0,VALID,23.3872,VALID,66,VALID,0.337109,
2010-07-01, 02:50:04,VALID,1000.12,VALID,0,VALID,90.5941,VALID,0,VALID,23.3872,VALID,63,VALID,0.5375,
2010-07-01, 02:51:04,VALID,1000.13,VALID,0,VALID,90.678,VALID,0,VALID,23.4085,VALID,63,VALID,0.414063,
2010-07-01, 02:52:04,VALID,1000.13,VALID,0,VALID,90.6094,VALID,0,VALID,23.3872,VALID,63,VALID,0.528906,
2010-07-01, 02:53:04,VALID,1000.15,VALID,0,VALID,90.6933,VALID,0,VALID,23.4085,VALID,63,VALID,0.628125,
2010-07-01, 02:54:04,VALID,1000.17,VALID,0,VALID,90.7391,VALID,0,VALID,23.4085,VALID,62,VALID,0.621094,
2010-07-01, 02:55:04,VALID,1000.18,VALID,0,VALID,90.678,VALID,0,VALID,23.3677,VALID,62,VALID,0.620703,
2010-07-01, 02:56:04,VALID,1000.18,VALID,0,VALID,90.5483,VALID,0,VALID,23.3482,VALID,62,VALID,0.393359,
2010-07-01, 02:57:04,VALID,1000.2,VALID,0,VALID,90.6246,VALID,0,VALID,23.35,VALID,62,VALID,0.244531,
2010-07-01, 02:58:04,VALID,1000.21,VALID,0,VALID,90.8459,VALID,0,VALID,23.3287,VALID,62,VALID,0.319531,
2010-07-01, 02:59:04,VALID,1000.21,VALID,0,VALID,90.884,VALID,0,VALID,23.3287,VALID,62,VALID,0.0738281,
2010-07-01, 03:00:04,VALID,1000.22,VALID,0,VALID,91.0443,VALID,0,VALID,23.3287,VALID,62,VALID,0,
2010-07-01, 03:01:04,VALID,1000.22,VALID,0,VALID,90.9603,VALID,0,VALID,23.3092,VALID,62,VALID,0.202734,
2010-07-01, 03:02:04,VALID,1000.24,VALID,0,VALID,90.823,VALID,0,VALID,23.3092,VALID,62,VALID,0,
2010-07-01, 03:03:04,VALID,1000.23,VALID,0,VALID,90.5788,VALID,0,VALID,23.2915,VALID,62,VALID,0.15,
2010-07-01, 03:04:04,VALID,1000.25,VALID,0,VALID,90.411,VALID,0,VALID,23.2702,VALID,62,VALID,0,
2010-07-01, 03:05:04,VALID,1000.24,VALID,0,VALID,90.3271,VALID,0,VALID,23.2719,VALID,62,VALID,0,
2010-07-01, 03:06:04,VALID,1000.25,VALID,0,VALID,90.4034,VALID,0,VALID,23.2524,VALID,62,VALID,0,
2010-07-01, 03:07:04,VALID,1000.23,VALID,0,VALID,90.4034,VALID,0,VALID,23.2117,VALID,62,VALID,0,
2010-07-01, 03:08:04,VALID,1000.23,VALID,0,VALID,90.4034,VALID,0,VALID,23.2117,VALID,62,VALID,0,
2010-07-01, 03:09:04,VALID,1000.24,VALID,0,VALID,90.4491,VALID,0,VALID,23.2329,VALID,62,VALID,0,
2010-07-01, 03:10:04,VALID,1000.26,VALID,0,VALID,90.6323,VALID,0,VALID,23.2312,VALID,62,VALID,0.420312,
2010-07-01, 03:11:04,VALID,1000.26,VALID,0,VALID,90.8688,VALID,0,VALID,23.2719,VALID,62,VALID,0.461719,
2010-07-01, 03:12:04,VALID,1000.29,VALID,0,VALID,90.8917,VALID,0,VALID,23.2702,VALID,59,VALID,0.733984,
2010-07-01, 03:13:04,VALID,1000.31,VALID,0,VALID,90.8001,VALID,0,VALID,23.3305,VALID,49,VALID,0.947656,
2010-07-01, 03:14:04,VALID,1000.31,VALID,0,VALID,90.3728,VALID,0,VALID,23.2915,VALID,30,VALID,1.4543,
2010-07-01, 03:15:04,VALID,1000.31,VALID,0,VALID,90.266,VALID,0,VALID,23.2312,VALID,29,VALID,1.34844,
2010-07-01, 03:16:04,VALID,1000.3,VALID,0,VALID,90.762,VALID,0,VALID,23.1921,VALID,40,VALID,1.54648,
2010-07-01, 03:17:04,VALID,1000.3,VALID,0,VALID,91.1663,VALID,0,VALID,23.2117,VALID,46,VALID,1.41289,
2010-07-01, 03:18:04,VALID,1000.29,VALID,0,VALID,91.4105,VALID,0,VALID,23.1921,VALID,55,VALID,1.55703,
2010-07-01, 03:19:04,VALID,1000.3,VALID,0,VALID,91.5707,VALID,0,VALID,23.2329,VALID,49,VALID,1.35586,
2010-07-01, 03:20:04,VALID,1000.31,VALID,0,VALID,91.6241,VALID,0,VALID,23.2134,VALID,53,VALID,1.06211,
2010-07-01, 03:21:04,VALID,1000.31,VALID,0,VALID,91.6775,VALID,0,VALID,23.1939,VALID,51,VALID,0.788672,
2010-07-01, 03:22:04,VALID,1000.3,VALID,0,VALID,91.6317,VALID,0,VALID,23.1744,VALID,50,VALID,0.972266,
2010-07-01, 03:23:04,VALID,1000.33,VALID,0,VALID,91.5097,VALID,0,VALID,23.1744,VALID,50,VALID,0.807422,
2010-07-01, 03:24:04,VALID,1000.39,VALID,0,VALID,91.4563,VALID,0,VALID,23.1744,VALID,50,VALID,0.808203,
2010-07-01, 03:25:04,VALID,1000.37,VALID,0,VALID,91.4486,VALID,0,VALID,23.1354,VALID,50,VALID,0.789063,
2010-07-01, 03:26:04,VALID,1000.4,VALID,0,VALID,91.5173,VALID,0,VALID,23.1354,VALID,49,VALID,1.0168,
2010-07-01, 03:27:04,VALID,1000.39,VALID,0,VALID,91.5478,VALID,0,VALID,23.1354,VALID,62,VALID,1.01602,
2010-07-01, 03:28:04,VALID,1000.42,VALID,0,VALID,91.4791,VALID,0,VALID,23.1354,VALID,62,VALID,1.01641,
2010-07-01, 03:29:04,VALID,1000.41,VALID,0,VALID,91.3418,VALID,0,VALID,23.1354,VALID,79,VALID,0.876172,
2010-07-01, 03:30:04,VALID,1000.36,VALID,0,VALID,91.1816,VALID,0,VALID,23.1549,VALID,81,VALID,1.04492,
2010-07-01, 03:31:04,VALID,1000.36,VALID,0,VALID,90.884,VALID,0,VALID,23.1939,VALID,77,VALID,1.09414,
2010-07-01, 03:32:04,VALID,1000.36,VALID,0,VALID,90.5407,VALID,0,VALID,23.2329,VALID,77,VALID,0.899219,
2010-07-01, 03:33:04,VALID,1000.35,VALID,0,VALID,90.3652,VALID,0,VALID,23.2524,VALID,77,VALID,0.688672,
2010-07-01, 03:34:04,VALID,1000.32,VALID,0,VALID,90.3118,VALID,0,VALID,23.2915,VALID,77,VALID,0.648438,
2010-07-01, 03:35:04,VALID,1000.32,VALID,0,VALID,90.2355,VALID,0,VALID,23.311,VALID,77,VALID,0.418359,
2010-07-01, 03:36:04,VALID,1000.31,VALID,0,VALID,90.2126,VALID,0,VALID,23.311,VALID,77,VALID,0.440234,
2010-07-01, 03:37:04,VALID,1000.29,VALID,0,VALID,90.2279,VALID,0,VALID,23.2915,VALID,77,VALID,0.384375,
2010-07-01, 03:38:04,VALID,1000.28,VALID,0,VALID,90.2889,VALID,0,VALID,23.2915,VALID,77,VALID,0.309766,
2010-07-01, 03:39:04,VALID,1000.27,VALID,0,VALID,90.3194,VALID,0,VALID,23.2719,VALID,81,VALID,0.508203,
2010-07-01, 03:40:04,VALID,1000.29,VALID,0,VALID,90.5102,VALID,0,VALID,23.2915,VALID,89,VALID,0.522266,
2010-07-01, 03:41:04,VALID,1000.25,VALID,0,VALID,90.5788,VALID,0,VALID,23.2915,VALID,89,VALID,0.414063,
2010-07-01, 03:42:04,VALID,1000.3,VALID,0,VALID,90.6551,VALID,0,VALID,23.2915,VALID,89,VALID,0.327734,
2010-07-01, 03:43:04,VALID,1000.29,VALID,0,VALID,90.8459,VALID,0,VALID,23.3092,VALID,91,VALID,0.659375,
2010-07-01, 03:44:04,VALID,1000.3,VALID,0,VALID,90.7849,VALID,0,VALID,23.35,VALID,129,VALID,0.635156,
2010-07-01, 03:45:04,VALID,1000.3,VALID,0,VALID,90.6857,VALID,0,VALID,23.3305,VALID,129,VALID,0.548828,
2010-07-01, 03:46:04,VALID,1000.34,VALID,0,VALID,90.6704,VALID,0,VALID,23.3695,VALID,129,VALID,0.608594,
2010-07-01, 03:47:04,VALID,1000.32,VALID,0,VALID,90.5941,VALID,0,VALID,23.3695,VALID,149,VALID,0.707422,